Time,TemperatureF,DewpointF,PressureIn,WindDirection,WindDirectionDegrees,WindSpeedMPH,WindSpeedGustMPH,Humidity,HourlyPrecipIn,Conditions,Clouds,dailyrainin,SolarRadiationWatts/m^2,SoftwareType,DateUTC
2013-02-19 00:00:00,40.0,34.0,-100.00,SSE,157,11.0,-999.0,79,0.01,,,-99.99,0.000000,,2013-02-19 05:00:00,
2013-02-19 00:43:00,40.0,34.0,-100.00,SSE,157,11.0,-999.0,79,0.01,,,-99.99,0.000000,,2013-02-19 05:43:00,
2013-02-19 00:52:00,40.0,34.0,-100.00,SSE,157,11.0,-999.0,79,0.01,,,-99.99,0.000000,,2013-02-19 05:52:00,
2013-02-19 01:00:00,41.0,34.0,-100.00,SSE,157,14.0,-999.0,74,-99.99,,,-99.99,0.000000,,2013-02-19 06:00:00,
2013-02-19 01:42:00,41.0,34.0,-100.00,SSE,157,14.0,-999.0,74,-99.99,,,-99.99,0.000000,,2013-02-19 06:42:00,
2013-02-19 01:53:00,41.0,34.0,-100.00,SSE,157,14.0,-999.0,74,-99.99,,,-99.99,0.000000,,2013-02-19 06:53:00,
2013-02-19 02:00:00,41.0,37.0,-100.00,SSE,157,17.0,-999.0,84,0.01,,,-99.99,0.000000,,2013-02-19 07:00:00,
2013-02-19 02:42:00,41.0,37.0,-100.00,SSE,157,17.0,-999.0,84,0.01,,,-99.99,0.000000,,2013-02-19 07:42:00,
2013-02-19 02:52:00,41.0,37.0,-100.00,SSE,157,17.0,-999.0,84,0.01,,,-99.99,0.000000,,2013-02-19 07:52:00,
2013-02-19 03:00:00,40.0,38.0,-100.00,SSE,157,16.0,-999.0,89,0.03,,,-99.99,0.000000,,2013-02-19 08:00:00,
2013-02-19 03:42:00,40.0,38.0,-100.00,SSE,157,16.0,-999.0,89,0.03,,,-99.99,0.000000,,2013-02-19 08:42:00,
2013-02-19 03:52:00,40.0,38.0,-100.00,SSE,157,16.0,-999.0,89,0.03,,,-99.99,0.000000,,2013-02-19 08:52:00,
2013-02-19 04:00:00,40.0,38.0,-100.00,South,180,15.0,-999.0,91,0.04,,,-99.99,0.000000,,2013-02-19 09:00:00,
2013-02-19 04:42:00,40.0,38.0,-100.00,South,180,15.0,-999.0,91,0.04,,,-99.99,0.000000,,2013-02-19 09:42:00,
2013-02-19 04:53:00,40.0,38.0,-100.00,South,180,15.0,-999.0,91,0.04,,,-99.99,0.000000,,2013-02-19 09:53:00,
2013-02-19 05:00:00,40.0,37.0,-100.00,SSW,202,18.0,-999.0,90,0.03,,,-99.99,0.000000,,2013-02-19 10:00:00,
2013-02-19 05:42:00,40.0,37.0,-100.00,SSW,202,18.0,-999.0,90,0.03,,,-99.99,0.000000,,2013-02-19 10:42:00,
2013-02-19 05:52:00,40.0,37.0,-100.00,SSW,202,18.0,-999.0,90,0.03,,,-99.99,0.000000,,2013-02-19 10:52:00,
2013-02-19 06:00:00,36.0,32.0,-100.00,SW,225,20.0,-999.0,86,-99.99,,,-99.99,0.000000,,2013-02-19 11:00:00,
2013-02-19 06:42:00,36.0,32.0,-100.00,SW,225,20.0,-999.0,86,-99.99,,,-99.99,0.000000,,2013-02-19 11:42:00,
2013-02-19 06:52:00,36.0,32.0,-100.00,SW,225,20.0,-999.0,86,-99.99,,,-99.99,0.000000,,2013-02-19 11:52:00,
2013-02-19 07:00:00,35.0,31.0,-100.00,WSW,247,20.0,-999.0,85,0.01,,,-99.99,0.000000,,2013-02-19 12:00:00,
2013-02-19 07:42:00,35.0,31.0,-100.00,WSW,247,20.0,-999.0,85,0.01,,,-99.99,0.000000,,2013-02-19 12:42:00,
2013-02-19 07:53:00,35.0,31.0,-100.00,WSW,247,20.0,-999.0,85,0.01,,,-99.99,0.000000,,2013-02-19 12:53:00,
2013-02-19 08:00:00,33.0,29.0,-100.00,SW,225,20.0,-999.0,85,-99.99,,,-99.99,2.320000,,2013-02-19 13:00:00,
2013-02-19 08:42:00,33.0,29.0,-100.00,SW,225,20.0,-999.0,85,-99.99,,,-99.99,2.320000,,2013-02-19 13:42:00,
2013-02-19 08:52:00,33.0,29.0,-100.00,SW,225,20.0,-999.0,85,-99.99,,,-99.99,2.320000,,2013-02-19 13:52:00,
2013-02-19 09:00:00,31.0,28.0,-100.00,SW,225,20.0,-999.0,85,-99.99,,,-99.99,12.760000,,2013-02-19 14:00:00,
2013-02-19 09:42:00,31.0,28.0,-100.00,SW,225,20.0,-999.0,85,-99.99,,,-99.99,12.760000,,2013-02-19 14:42:00,
2013-02-19 09:52:00,31.0,28.0,-100.00,SW,225,20.0,-999.0,85,-99.99,,,-99.99,12.760000,,2013-02-19 14:52:00,
2013-02-19 10:00:00,30.0,26.0,-100.00,SW,225,22.0,-999.0,84,-99.99,,,-99.99,41.759998,,2013-02-19 15:00:00,
2013-02-19 10:42:00,30.0,26.0,-100.00,SW,225,22.0,-999.0,84,-99.99,,,-99.99,41.759998,,2013-02-19 15:42:00,
2013-02-19 10:52:00,30.0,26.0,-100.00,SW,225,22.0,-999.0,84,-99.99,,,-99.99,41.759998,,2013-02-19 15:52:00,
2013-02-19 11:00:00,28.0,24.0,-100.00,SW,225,22.0,-999.0,81,-99.99,,,-99.99,69.599998,,2013-02-19 16:00:00,
2013-02-19 11:42:00,28.0,24.0,-100.00,SW,225,22.0,-999.0,81,-99.99,,,-99.99,69.599998,,2013-02-19 16:42:00,
2013-02-19 11:52:00,28.0,24.0,-100.00,SW,225,22.0,-999.0,81,-99.99,,,-99.99,69.599998,,2013-02-19 16:52:00,
2013-02-19 12:00:00,28.0,22.0,-100.00,SW,225,22.0,-999.0,80,-99.99,,,-99.99,117.160004,,2013-02-19 17:00:00,
2013-02-19 12:42:00,28.0,22.0,-100.00,SW,225,22.0,-999.0,80,-99.99,,,-99.99,117.160004,,2013-02-19 17:42:00,
2013-02-19 12:52:00,28.0,22.0,-100.00,SW,225,22.0,-999.0,80,-99.99,,,-99.99,117.160004,,2013-02-19 17:52:00,
2013-02-19 13:00:00,27.0,22.0,-100.00,SW,225,22.0,-999.0,81,-99.99,,,-99.99,211.119995,,2013-02-19 18:00:00,
2013-02-19 13:42:00,27.0,22.0,-100.00,SW,225,22.0,-999.0,81,-99.99,,,-99.99,211.119995,,2013-02-19 18:42:00,
2013-02-19 13:52:00,27.0,22.0,-100.00,SW,225,22.0,-999.0,81,-99.99,,,-99.99,211.119995,,2013-02-19 18:52:00,
2013-02-19 14:00:00,27.0,21.0,-100.00,SW,225,22.0,-999.0,79,-99.99,,,-99.99,110.199997,,2013-02-19 19:00:00,
2013-02-19 14:42:00,27.0,21.0,-100.00,SW,225,22.0,-999.0,79,-99.99,,,-99.99,110.199997,,2013-02-19 19:42:00,
2013-02-19 14:52:00,27.0,21.0,-100.00,SW,225,22.0,-999.0,79,-99.99,,,-99.99,110.199997,,2013-02-19 19:52:00,
2013-02-19 15:00:00,27.0,21.0,-100.00,WSW,247,22.0,-999.0,78,-99.99,,,-99.99,128.759995,,2013-02-19 20:00:00,
2013-02-19 15:42:00,27.0,21.0,-100.00,WSW,247,22.0,-999.0,78,-99.99,,,-99.99,128.759995,,2013-02-19 20:42:00,
2013-02-19 15:52:00,27.0,21.0,-100.00,WSW,247,22.0,-999.0,78,-99.99,,,-99.99,128.759995,,2013-02-19 20:52:00,
2013-02-19 16:00:00,26.0,23.0,-100.00,WSW,247,19.0,-999.0,87,-99.99,,,-99.99,178.639999,,2013-02-19 21:00:00,
2013-02-19 16:42:00,26.0,23.0,-100.00,WSW,247,19.0,-999.0,87,-99.99,,,-99.99,178.639999,,2013-02-19 21:42:00,
2013-02-19 16:52:00,26.0,23.0,-100.00,WSW,247,19.0,-999.0,87,-99.99,,,-99.99,178.639999,,2013-02-19 21:52:00,
2013-02-19 17:00:00,24.0,22.0,-100.00,WSW,247,20.0,-999.0,90,-99.99,,,-99.99,78.879997,,2013-02-19 22:00:00,
2013-02-19 17:42:00,24.0,22.0,-100.00,WSW,247,20.0,-999.0,90,-99.99,,,-99.99,78.879997,,2013-02-19 22:42:00,
2013-02-19 17:52:00,24.0,22.0,-100.00,WSW,247,20.0,-999.0,90,-99.99,,,-99.99,78.879997,,2013-02-19 22:52:00,
2013-02-19 18:00:00,23.0,20.0,-100.00,WSW,247,20.0,-999.0,88,-99.99,,,-99.99,46.400002,,2013-02-19 23:00:00,
2013-02-19 18:42:00,23.0,20.0,-100.00,WSW,247,20.0,-999.0,88,-99.99,,,-99.99,46.400002,,2013-02-19 23:42:00,
2013-02-19 18:52:00,23.0,20.0,-100.00,WSW,247,20.0,-999.0,88,-99.99,,,-99.99,46.400002,,2013-02-19 23:52:00,
2013-02-19 19:00:00,21.0,19.0,-100.00,WSW,247,18.0,-999.0,89,-99.99,,,-99.99,1.160000,,2013-02-20 00:00:00,
2013-02-19 19:42:00,21.0,19.0,-100.00,WSW,247,18.0,-999.0,89,-99.99,,,-99.99,1.160000,,2013-02-20 00:42:00,
2013-02-19 19:52:00,21.0,19.0,-100.00,WSW,247,18.0,-999.0,89,-99.99,,,-99.99,1.160000,,2013-02-20 00:52:00,
2013-02-19 20:00:00,21.0,16.0,-100.00,WSW,247,17.0,-999.0,80,-99.99,,,-99.99,0.000000,,2013-02-20 01:00:00,
2013-02-19 20:42:00,21.0,16.0,-100.00,WSW,247,17.0,-999.0,80,-99.99,,,-99.99,0.000000,,2013-02-20 01:42:00,
2013-02-19 20:52:00,21.0,16.0,-100.00,WSW,247,17.0,-999.0,80,-99.99,,,-99.99,0.000000,,2013-02-20 01:52:00,
2013-02-19 21:00:00,20.0,15.0,-100.00,WSW,247,17.0,-999.0,81,-99.99,,,-99.99,0.000000,,2013-02-20 02:00:00,
2013-02-19 21:42:00,20.0,15.0,-100.00,WSW,247,17.0,-999.0,81,-99.99,,,-99.99,0.000000,,2013-02-20 02:42:00,
2013-02-19 21:52:00,20.0,15.0,-100.00,WSW,247,17.0,-999.0,81,-99.99,,,-99.99,0.000000,,2013-02-20 02:52:00,
2013-02-19 22:00:00,20.0,14.0,-100.00,West,270,17.0,-999.0,79,-99.99,,,-99.99,0.000000,,2013-02-20 03:00:00,
2013-02-19 22:42:00,20.0,14.0,-100.00,West,270,17.0,-999.0,79,-99.99,,,-99.99,0.000000,,2013-02-20 03:42:00,
2013-02-19 22:52:00,20.0,14.0,-100.00,West,270,17.0,-999.0,79,-99.99,,,-99.99,0.000000,,2013-02-20 03:52:00,
2013-02-19 23:00:00,18.0,16.0,-100.00,West,270,13.0,-999.0,89,-99.99,,,-99.99,0.000000,,2013-02-20 04:00:00,
2013-02-19 23:42:00,18.0,16.0,-100.00,West,270,13.0,-999.0,89,-99.99,,,-99.99,0.000000,,2013-02-20 04:42:00,
2013-02-19 23:52:00,18.0,16.0,-100.00,West,270,13.0,-999.0,89,-99.99,,,-99.99,0.000000,,2013-02-20 04:52:00,